Preview of NWS' New Version of Forecast
This preview is not operational and should not be used for support decisions.

Regional Weather Roundup (RWR)

Issued by National Weather Service (NWS)

                            
000
ASCA42 TJSJ 232310
RWRPR 
PUERTO RICO/U.S. VIRGIN ISLANDS HOURLY WEATHER ROUNDUP
NATIONAL WEATHER SERVICE SAN JUAN PR
700 PM AST TUE APR 23 2019

PRZ001>002-007>008-010-240000-
PUERTO RICO
  
CITY           SKY/WX    TMP DP  RH WIND       PRES   REMARKS
SAN JUAN LMM   MOCLDY    79  66  65 E10       29.94R                  
AGUADILLA      PTCLDY    75  66  73 E10       29.96R                  
CEIBA          CLOUDY    81  66  61 NE9       29.95R                  
$$

VIZ001>002-240000-
U.S. VIRGIN ISLANDS
  
CITY           SKY/WX    TMP DP  RH WIND       PRES   REMARKS
CHARLOTTE AMA  LGT RAIN  79  68  69 NE9       29.93R                  
CHRISTIANSTED  PTCLDY    79  66  65 E9        29.95R                  
$$

HOURLY WEATHER ROUNDUP FOR THE NEWS MEDIA
  
CITY           SKY/WX    TMP DP  RH WIND       PRES   REMARKS
ORLANDO        FAIR      79  57  46 E12       30.05S                  
NEW YORK       MOCLDY    59  51  75 VRB5      29.86S                  
NEWARK         CLOUDY    67  52  58 E3        29.83S                  
CHICAGO        PTSUNNY   59  41  51 E8        30.02S                  
HARTFORD       CLOUDY    52  49  89 SE6       29.90R                  
BOSTON         CLOUDY    47  42  83 SE10      29.91S                  
DALLAS         CLOUDY    74  65  73 SE8       29.94F THUNDER          
PHILADELPHIA   MOCLDY    75  47  36 S8        29.84F                  
LOS ANGELES    PTSUNNY   64  56  75 W10       29.92F                  
WASHINGTON DC  MOCLDY    81  49  32 S14G22    29.80F